Location: Grust
(42.8833°N, 0.0333°W)
Time: 14:40:37
(UTC+00:00)

NOSS 3-3 (A) - Pass Details

Date: 25 October 2020
Orbit: 826 x 1387 km, 63.4° (Epoch: 22 November)

Event Time Altitude Azimuth Distance (km) Brightness Sun altitude
Rises 19:09:55 0° 209° (SSW) 3,386 7.1 -24.1°
Reaches altitude 10° 19:12:16 10° 208° (SSW) 2,488 6.4 -24.5°
Maximum altitude 19:17:59 78° 123° (ESE) 944 3.7 -25.6°
Enters shadow 19:19:21 56° 52° (NE) 1,112 4.0 -25.8°
